LEMUR-2-TACHIKOMA (41996 NORAD) Tracking and Keplerian Element Data

This shows tracking and keplerian element data for the satellite.

Feedback or suggestion? Click here.




ElementValue
Catalog41996
NameLEMUR-2-TACHIKOMA
Epoch Orbit34631
Epoch Day127.15489393
Epoch Year2023
RAAN198.0534
Inclination97.2128
Eccentricity0.0006586
Argument of Perigee196.7145
Mean Anonmoly163.3907
Mean Motion15.80754201
Decay Rate0.00333321
L11 41996U 17008BA 23127.15489393 .00333321 00000+0 16786-2 0 9996
L22 41996 97.2128 198.0534 0006586 196.7145 163.3907 15.80754201346317



Live tracking and technical data element details for LEMUR-2-TACHIKOMA (NORAD 41996). LEMUR-2-TACHIKOMA can be tracked NOW for your location showing map with azimuth and elevation plus other details from your city location.







IsCatalogInMostPopularTable: catalog: 41996, numindb: 331
Update: records affected: 1



GetName: 41996 LEMUR-2-TACHIKOMA

Hit Count: updated at: Thu, 21 May 2026 11:13:09 GMT